"Pseudo-MPEC" for N00j7wn

Created 2021 Dec 9 3:07:22 UT using Find_Orb

Click here for an explanation of pseudo-MPECs

 
 Astrometry: 
     N00j7wn  S2021 11 20.ZLrw$CDBPTDNlYS%PG='=BVPK7ax-p2ZB08@.5pYy.wX;V.si4pC51
     N00j7wn  s2021 11 20dukKtxu,2rpK8$`.@s-)qex'M;!qOKq9Fb@`n'sfwx$8fB1t%\9$C51
     N00j7wn  S2021 11 20dA??8HDcaj%Yee'Astrometryl8mCjKE\8Bnfredacted;G*Y%HxC51
     N00j7wn  s2021 11 20glFeUaVZAuHAlpd7udsg,AS-g3Ng1p4X[i?k$:fX=a$3oclickbjC51
     N00j7wn  S2021 11 20iPvd))jpp?8\5L:po3bM((_EDd2J3t:J6g.s1XDPpevheret6FaRC51
     N00j7wn  s2021 11 20siZY4XwF(0ABgE2.S`?2*p\d5Y^%%yWRile#Jb$SMEOnDbxud`EFC51
     N00j7wn  S2021 11 20J5Yb:8arEP0.hM2uT1KHUg$SCy=)yS4Q;NjVi-y;-LM\8a(mN,GqC51
     N00j7wn  s2021 11 20`_6-Mh!2Y!f@[''bdaKjmTPn%6gZO#AkD$W#ZXCT3$6nfTU@Yy3gC51
     N00j7wn  S2021 11 21P\m@I'pLHrrlPOodblsup/C6cx0Bxx0(ZWH)^U`k'SuW:?o3n?B7C51
     N00j7wn  s2021 11 210_i@'ArkIRr[`jkG5rTeO0%HY8py4-csw]VFB.HnDc^5dNar9k(9C51
     N00j7wn  S2021 11 21b00;DqX=H;qgKqc4@W2]oGGCb?6SG.mcW$N6YwR+W'Ev8WY-XZ+AC51
     N00j7wn  s2021 11 21yAt!*forAHRwe'3xX?]Pw`1B6ITp02*oS^7(9A#WCVTb7B;oaxy8C51
     N00j7wn  S2021 11 2180[)3iyC!]9/A*7Z%:lpeaBZV*2UvK?1TR-vDi1fsRlTgmsNiS_MC51
     N00j7wn  s2021 11 21fnJk4[y@\,^*_Ip2KqdA=?.087lPM2DQ#23SobIexplanation-lC51
     N00j7wn KC2021 11 29.42818 10 56 52.86 +28 15 51.8    ~BTBM       VNEOCP291
     N00j7wn KC2021 11 29.43608 10 56 53.79 +28 15 46.0    ~BTBM 21.6 GVNEOCP291
     N00j7wn KC2021 11 29.44399 10 56 54.73 +28 15 40.5    ~BTBM 21.6 GVNEOCP291
     N00j7wn KC2021 11 30.40595 10 58 49.25 +28 04 23.4    ~BUAM 21.7 RoNEOCP291
     N00j7wn KC2021 11 30.41117 10 58 49.85 +28 04 20.0    ~BUAM 21.7 RoNEOCP291
     N00j7wn KC2021 11 30.41639 10 58 50.45 +28 04 16.3    ~BUAM 22.4 RoNEOCP291

Station data:
(291) LPL/Spacewatch II  (N31.961669 W111.599905)  US/Arizona.  Observers J.
   V. Scotti, R. S. McMillan. 1.8-m f/2.7 reflector + CCD.
(C51) WISE. Measurers A. Mainzer, E. Wright, J. Bauer, T. Grav, J. Dailey, J.
   Masiero, R. Cutri, R. McMillan, R. Walker.

Orbital elements:  N00j7wn
   Perihelion 2021 Oct 4.404738 TT =  9:42:49 (JD 2459491.904738)
Epoch 2021 Nov 30.0 TT = JDT 2459548.5   Earth MOID: 0.0134   AutoNEOCP
M  42.68777063                      (J2000 ecliptic)
n   0.75426403     Peri.   41.91591
a   1.19523632     Node   344.90346
e   0.1755958      Incl.    6.44504
P   1.31/477.28d   H   21.8     G   0.15   q 0.98535780  Q 1.40511485
From 13 observations 2021 Nov. 20-30; mean residual 2".11
Residuals in arcseconds: 
211120 C51  5.2-  1.7+    211121 C51  1.6+  .55-    211130 291  1.8-  .67+    
211120 C51  2.7-  .87+    211121 C51  5.9+  3.4-    211130 291  1.7-  .63+    
211120 C51  2.5-  .33+    211129 291  1.4+  .05-    211130 291  1.5-  .31+    
211120 C51  .32+  1.3+    211129 291  1.7+  .66-    
211121 C51  1.2+  .01-    211129 291  2.3+  .96-    

Ephemerides (geocentric):
Date (UTC) HH   RA              Dec         delta   r     elong  mag
---- -- -- --  -------------   -----------  ------ ------ -----  ---
2021 12 09 03  11 14 05.405   +26 28 02.75  .34049 1.0844  97.7 21.9
2021 12 09 04  11 14 09.246   +26 27 36.81  .34046 1.0845  97.7 21.9
2021 12 09 05  11 14 13.083   +26 27 10.89  .34042 1.0846  97.7 21.9
2021 12 09 06  11 14 16.914   +26 26 44.98  .34039 1.0847  97.8 21.9
2021 12 09 07  11 14 20.739   +26 26 19.10  .34036 1.0848  97.8 21.9
2021 12 09 08  11 14 24.560   +26 25 53.23  .34032 1.0849  97.8 21.9
2021 12 09 09  11 14 28.375   +26 25 27.38  .34029 1.0850  97.8 21.9
2021 12 09 10  11 14 32.185   +26 25 01.54  .34026 1.0851  97.9 21.9
2021 12 09 11  11 14 35.989   +26 24 35.73  .34022 1.0852  97.9 21.9
2021 12 09 12  11 14 39.789   +26 24 09.93  .34019 1.0853  97.9 21.9
2021 12 09 13  11 14 43.582   +26 23 44.15  .34016 1.0854  97.9 21.9
2021 12 09 14  11 14 47.371   +26 23 18.39  .34012 1.0856  98.0 21.9
2021 12 09 15  11 14 51.154   +26 22 52.64  .34009 1.0857  98.0 21.9
2021 12 09 16  11 14 54.932   +26 22 26.92  .34005 1.0858  98.0 21.9
2021 12 09 17  11 14 58.705   +26 22 01.21  .34002 1.0859  98.0 21.9
2021 12 09 18  11 15 02.472   +26 21 35.52  .33999 1.0860  98.0 21.9
2021 12 09 19  11 15 06.234   +26 21 09.85  .33995 1.0861  98.1 21.9
2021 12 09 20  11 15 09.991   +26 20 44.20  .33992 1.0862  98.1 21.9
2021 12 09 21  11 15 13.742   +26 20 18.56  .33988 1.0863  98.1 21.9
2021 12 09 22  11 15 17.488   +26 19 52.94  .33985 1.0864  98.1 21.9
2021 12 09 23  11 15 21.228   +26 19 27.34  .33981 1.0865  98.2 21.9
2021 12 10 00  11 15 24.964   +26 19 01.76  .33978 1.0866  98.2 21.9
2021 12 10 01  11 15 28.694   +26 18 36.20  .33974 1.0867  98.2 21.9
2021 12 10 02  11 15 32.418   +26 18 10.66  .33971 1.0869  98.2 21.9
2021 12 10 03  11 15 36.138   +26 17 45.13  .33967 1.0870  98.3 21.9
2021 12 10 04  11 15 39.851   +26 17 19.62  .33964 1.0871  98.3 21.9
2021 12 10 05  11 15 43.560   +26 16 54.13  .33960 1.0872  98.3 21.9
2021 12 10 06  11 15 47.263   +26 16 28.66  .33957 1.0873  98.3 21.9
2021 12 10 07  11 15 50.961   +26 16 03.21  .33953 1.0874  98.4 21.9
2021 12 10 08  11 15 54.654   +26 15 37.78  .33950 1.0875  98.4 21.9
2021 12 10 09  11 15 58.341   +26 15 12.36  .33946 1.0876  98.4 21.9
2021 12 10 10  11 16 02.022   +26 14 46.96  .33942 1.0877  98.4 21.9
2021 12 10 11  11 16 05.699   +26 14 21.58  .33939 1.0878  98.5 21.9
2021 12 10 12  11 16 09.370   +26 13 56.22  .33935 1.0879  98.5 21.9
2021 12 10 13  11 16 13.036   +26 13 30.88  .33932 1.0880  98.5 21.9
2021 12 10 14  11 16 16.696   +26 13 05.55  .33928 1.0882  98.5 21.9
2021 12 10 15  11 16 20.351   +26 12 40.25  .33925 1.0883  98.6 21.9
2021 12 10 16  11 16 24.000   +26 12 14.96  .33921 1.0884  98.6 21.9
2021 12 10 17  11 16 27.645   +26 11 49.69  .33917 1.0885  98.6 21.9
2021 12 10 18  11 16 31.283   +26 11 24.44  .33914 1.0886  98.6 21.9
2021 12 10 19  11 16 34.917   +26 10 59.21  .33910 1.0887  98.7 21.9
2021 12 10 20  11 16 38.545   +26 10 34.00  .33906 1.0888  98.7 21.9
2021 12 10 21  11 16 42.168   +26 10 08.81  .33903 1.0889  98.7 21.9
2021 12 10 22  11 16 45.785   +26 09 43.63  .33899 1.0890  98.7 21.9
2021 12 10 23  11 16 49.397   +26 09 18.47  .33895 1.0891  98.8 21.9
2021 12 11 00  11 16 53.003   +26 08 53.34  .33892 1.0892  98.8 21.9
2021 12 11 01  11 16 56.604   +26 08 28.22  .33888 1.0894  98.8 21.9
2021 12 11 02  11 17 00.200   +26 08 03.12  .33884 1.0895  98.8 21.9